Ushuaia, Argentina

6:02 PM America en Julio 16, 2018 (GMT +0000)
Ushuaia International Malvine Island

Tiempo Historia de SAWH - Julio, 2018

Change the Weather History Date:

Jueves, Julio 12, 2018

  Actual Average Record
Temperature  
Temperatura media 34 ° F -  
Temperatura máxima 36 ° F 41 ° F 53 ° F (2013)
Temperatura mínima 32 ° F 29 ° F 23 ° F (2001)
Degree Days  
Grados día de calefacción 31    
Moisture  
Punto de rocío 29 ° F    
Average Humidity 78    
Maximum Humidity 100    
Minimum Humidity 67    
Precipitación  
Precipitación 0.00 pul 0.05 pul - ()
Presión al nivel del mar  
Presión al nivel del mar 29.47 pul    
Viento  
Velocidad del viento 21 mph ()    
Velocidad máxima del viento 39 mph    
Max Gust Speed 47 mph    
Visibilidad 7.1 Millas    
Eventos Nieve    
Averages and records for this station are not official NWS values.
T = Trace of Precipitation, MM = Missing Value Source: Averaged Metar Reports

Daily Weather History Graph

Daily Weather History Graph

Search for Another Location

Airport or City:

Astronomía

Jul. 12, 2018 Salida Puesta
Hora real 9:50 AM -03 5:27 PM -03
Crepúsculo civil 9:07 AM -03 6:11 PM -03
Crepúsculo náutico 8:20 AM -03 6:57 PM -03
Crepúsculo astronómico 7:37 AM -03 7:40 PM -03
Luna 9:12 AM -03 (7/12) 5:10 PM -03 (7/12)
Horas de luz 9h 04m
Horas de luz
7h 37m
Creciente menguante, 0% of the Moon is Illuminated
Jul 12
Creciente menguante
Jul 12
Nueva
Jul 19
Cuarto creciente
Jul 27
Luna llena
Ago 4
Cuarto menguante

Hourly Weather History & Observations

Hora (-03) Temp. Vientos helados Punto de rocío Humedad Presión Visibilidad Wind Dir Velocidad del viento Velocidad de ráfagas Precip Eventos Condiciones
4:00 AM 35.6 ° F 24.5 ° F 26.6 ° F 70% 29.36 pul 6.2 mi SO 20.7 mph - N/A   Nubes dispersas
5:00 AM 35.6 ° F 22.1 ° F 28.4 ° F 75% 29.33 pul 6.2 mi SO 32.2 mph 42.6 mph N/A   Nubes dispersas
6:00 AM 33.8 ° F 19.0 ° F 28.4 ° F 81% 29.33 pul 6.2 mi SO 35.7 mph 46.0 mph N/A   Nubes dispersas
7:00 AM 35.6 ° F 22.3 ° F 28.4 ° F 75% 29.33 pul 6.2 mi SO 31.1 mph 47.2 mph N/A   Nubes dispersas
8:00 AM 33.8 ° F 18.5 ° F 26.6 ° F 75% 29.33 pul 6.2 mi SO 39.1 mph - N/A   Nubes dispersas
9:00 AM 36 ° F - 29 ° F 69% 29.36 pul 19 mi SO 34.5 mph - -   Muy nublado
9:00 AM 35.6 ° F 21.7 ° F 30.2 ° F 81% 29.36 pul 6.2 mi SO 34.5 mph - N/A   Nubes dispersas
10:00 AM 35.6 ° F 21.7 ° F 30.2 ° F 81% 29.36 pul 6.2 mi SO 34.5 mph 47.2 mph N/A   Muy nublado
11:00 AM 35.6 ° F 22.3 ° F 32.0 ° F 87% 29.39 pul 6.2 mi SO 31.1 mph 42.6 mph N/A   Llovizna
12:00 PM 36 ° F - 32 ° F 80% 29.44 pul 9 mi SO 23.0 mph - -   Muy nublado
12:00 PM 35.6 ° F 24.0 ° F 32.0 ° F 87% 29.42 pul 6.2 mi SO 23.0 mph 39.1 mph N/A   Muy nublado
1:00 PM 35.6 ° F 24.0 ° F 32.0 ° F 87% 29.44 pul 6.2 mi SO 23.0 mph 35.7 mph N/A   Nubes dispersas
2:00 PM 35.6 ° F 24.5 ° F 28.4 ° F 75% 29.44 pul 6.2 mi SO 20.7 mph 31.1 mph N/A   Nubes dispersas
3:00 PM 35 ° F - 29 ° F 71% 29.49 pul 5 mi SO 20.7 mph - - Nieve Débil nevada
3:00 PM 35.6 ° F 24.5 ° F 28.4 ° F 75% 29.47 pul 5.0 mi SO 20.7 mph 36.8 mph N/A Nieve Nieve
4:00 PM 35.6 ° F 28.0 ° F 28.4 ° F 75% 29.50 pul 6.2 mi SO 10.4 mph 34.5 mph N/A Nieve Nieve
5:00 PM 35.6 ° F 25.5 ° F 28.4 ° F 75% 29.50 pul 6.2 mi SO 17.3 mph - N/A   Muy nublado
6:00 PM 34 ° F - 29 ° F 73% 29.57 pul 9 mi Sur 10.4 mph - - Nieve Débil nevada
6:00 PM 33.8 ° F 25.8 ° F 28.4 ° F 81% 29.56 pul 6.2 mi Sur 10.4 mph - N/A Nieve Débil nevada
7:00 PM 33.8 ° F - 33.8 ° F 100% 29.59 pul 6.2 mi Sin viento Sin viento - N/A   Muy nublado
8:00 PM 32.0 ° F 23.0 ° F 28.4 ° F 87% 29.59 pul 6.2 mi SO 11.5 mph - N/A   Muy nublado
9:00 PM 33 ° F - 26 ° F 67% 29.64 pul 12 mi Oeste 8.1 mph - -   Muy nublado
9:00 PM 32.0 ° F 24.8 ° F 26.6 ° F 80% 29.62 pul 6.2 mi Oeste 8.1 mph - N/A   Muy nublado
10:00 PM 32.0 ° F 23.0 ° F 26.6 ° F 80% 29.65 pul 6.2 mi SSO 11.5 mph - N/A   Muy nublado
11:00 PM 32.0 ° F 23.0 ° F 24.8 ° F 75% 29.65 pul 6.2 mi Oeste 11.5 mph 25.3 mph N/A   Muy nublado